Mitchell, SD

1:38 PM CDT on June 18, 2019 (GMT -0500)
Mitchell Municipal

Weather History for KMHE - May, 2019

Change the Weather History Date:

Sunday, May 19, 2019

  Actual Average Record
Temperature  
Mean Temperature 46 °F 60 °F  
Max Temperature 49 °F 72 °F 104 °F (1934)
Min Temperature 42 °F 49 °F 29 °F (2002)
Degree Days  
Heating Degree Days 19 6  
Month to date heating degree days 217 157  
Since 1 July heating degree days 7905 7157  
Cooling Degree Days 0 1  
Month to date cooling degree days 7 16  
Year to date cooling degree days 7 18  
Moisture  
Dew Point 42 °F    
Average Humidity 84    
Maximum Humidity 92    
Minimum Humidity 76    
Precipitation  
Precipitation 0.09 in 0.08 in 1.38 in (1950)
Month to date precipitation 2.78 1.45  
Year to date precipitation 10.36 5.25  
Snow  
Snow 0.00 in - 0.00 in ()
Month to date snowfall 0.0  
Since 1 July snowfall 67.6  
Snow Depth 0.00 in    
Sea Level Pressure  
Sea Level Pressure 29.85 in    
Wind  
Wind Speed 11 mph (North)    
Max Wind Speed 21 mph    
Max Gust Speed 25 mph    
Visibility 7 miles    
Events Rain    
T = Trace of Precipitation, MM = Missing Value Source: NWS Daily Summary

Daily Weather History Graph

Daily Weather History Graph

Search for Another Location

Airport or City:

Astronomy

May. 19, 2019 Rise Set
Actual Time 6:02 AM CDT 8:55 PM CDT
Civil Twilight 5:29 AM CDT 9:28 PM CDT
Nautical Twilight 4:46 AM CDT 10:11 PM CDT
Astronomical Twilight 3:56 AM CDT 11:01 PM CDT
Moon 9:56 PM CDT (5/19) 6:50 AM CDT (5/19)
Length of Visible Light 15h 59m
Length of Day
14h 52m
Full, 99% of the Moon is Illuminated
May 19
Full
May 26
Last Quarter
Jun 3
New
Jun 10
First Quarter
Jun 17
Full

Hourly Weather History & Observations

Time (CDT) Temp. Windchill Dew Point Humidity Pressure Visibility Wind Dir Wind Speed Gust Speed Precip Events Conditions
12:04 AM 48.0 °F - 46.0 °F 93% 29.73 in 3.0 mi NNE 9.2 mph - 0.01 in Rain Light Rain
12:26 AM 48.0 °F - 46.0 °F 93% 29.72 in 4.0 mi NNE 11.5 mph - 0.01 in Rain Light Rain
12:53 AM 48.0 °F - 45.0 °F 89% 29.73 in 9.0 mi NNE 12.7 mph - 0.01 in   Overcast
1:53 AM 48.0 °F - 45.0 °F 89% 29.72 in 10.0 mi NNE 11.5 mph - N/A   Overcast
2:08 AM 48.0 °F - 44.1 °F 86% 29.72 in 10.0 mi NNE 10.4 mph - N/A   Overcast
2:28 AM 46.9 °F - 45.0 °F 93% 29.71 in 5.0 mi North 10.4 mph - 0.00 in Rain Light Rain
2:35 AM 46.9 °F - 44.1 °F 90% 29.71 in 2.5 mi North 11.5 mph - 0.00 in Rain Light Rain
2:51 AM 46.4 °F 41.1 °F 44.6 °F 93% 29.71 in 4.0 mi North 11.5 mph - 0.00 in Rain Light Rain
2:53 AM 46.9 °F - 44.1 °F 90% 29.72 in 4.0 mi North 11.5 mph - 0.00 in Rain Light Rain
3:16 AM 46.0 °F 39.9 °F 44.1 °F 93% 29.71 in 3.0 mi North 13.8 mph - 0.01 in Rain Light Rain
3:28 AM 46.0 °F 39.0 °F 44.1 °F 93% 29.71 in 5.0 mi North 17.3 mph 23.0 mph 0.01 in Rain Light Rain
3:53 AM 45.0 °F 38.2 °F 43.0 °F 93% 29.73 in 10.0 mi North 15.0 mph - 0.01 in   Overcast
4:29 AM 45.0 °F 39.3 °F 42.1 °F 90% 29.73 in 6.0 mi North 11.5 mph - 0.00 in Rain Light Rain
4:53 AM 45.0 °F 38.5 °F 42.1 °F 90% 29.75 in 3.0 mi North 13.8 mph - 0.00 in Rain Light Rain
5:49 AM 44.6 °F 38.8 °F 42.8 °F 93% 29.76 in 3.0 mi NNW 11.5 mph - 0.01 in Rain Light Rain
5:53 AM 44.1 °F 37.4 °F 42.1 °F 93% 29.78 in 3.0 mi North 13.8 mph - 0.01 in Rain Light Rain
6:00 AM 44.1 °F 37.7 °F 42.1 °F 93% 29.77 in 3.0 mi North 12.7 mph - 0.00 in Rain Light Rain
6:11 AM 44.1 °F 38.6 °F 42.1 °F 93% 29.77 in 3.0 mi North 10.4 mph - 0.00 in Rain Light Rain
6:31 AM 44.1 °F 37.7 °F 42.1 °F 93% 29.77 in 5.0 mi North 12.7 mph - 0.00 in Rain Light Rain
6:42 AM 45.0 °F 39.3 °F 42.1 °F 90% 29.77 in 7.0 mi North 11.5 mph - 0.00 in Rain Light Rain
6:53 AM 45.0 °F 39.7 °F 42.1 °F 90% 29.79 in 10.0 mi North 10.4 mph - 0.00 in   Overcast
7:03 AM 45.0 °F 38.9 °F 42.1 °F 90% 29.77 in 10.0 mi North 12.7 mph - N/A   Overcast
7:13 AM 45.0 °F 40.1 °F 42.1 °F 90% 29.78 in 7.0 mi North 9.2 mph - N/A   Overcast
7:22 AM 44.1 °F 38.6 °F 42.1 °F 93% 29.78 in 1.8 mi North 10.4 mph - 0.01 in Rain Light Rain
7:30 AM 45.0 °F 40.1 °F 42.1 °F 90% 29.78 in 3.0 mi North 9.2 mph - 0.01 in Rain Light Rain
7:53 AM 45.0 °F 38.5 °F 42.1 °F 90% 29.81 in 8.0 mi North 13.8 mph - 0.01 in   Mostly Cloudy
8:00 AM 45.0 °F 39.3 °F 42.1 °F 90% 29.80 in 5.0 mi North 11.5 mph - 0.00 in Rain Light Rain
8:42 AM 45.0 °F 39.3 °F 42.1 °F 90% 29.81 in 9.0 mi NNW 11.5 mph - 0.00 in   Overcast
8:44 AM 45.0 °F 39.7 °F 42.1 °F 90% 29.81 in 9.0 mi NNW 10.4 mph - 0.00 in   Overcast
8:53 AM 45.0 °F 38.9 °F 42.1 °F 90% 29.83 in 10.0 mi NNW 12.7 mph - 0.00 in   Overcast
8:58 AM 45.0 °F 39.3 °F 41.0 °F 86% 29.82 in 10.0 mi NNW 11.5 mph - N/A   Overcast
9:08 AM 46.0 °F 40.2 °F 42.1 °F 86% 29.82 in 10.0 mi NNW 12.7 mph - N/A   Overcast
9:16 AM 45.0 °F 38.5 °F 41.0 °F 86% 29.82 in 10.0 mi NNW 13.8 mph - N/A   Overcast
9:37 AM 46.0 °F 40.6 °F 41.0 °F 83% 29.82 in 10.0 mi NNW 11.5 mph - N/A   Overcast
9:53 AM 45.0 °F 39.3 °F 41.0 °F 86% 29.84 in 8.0 mi NNW 11.5 mph - N/A   Overcast
10:12 AM 45.0 °F 38.2 °F 42.1 °F 90% 29.83 in 8.0 mi NNW 15.0 mph - N/A   Overcast
10:28 AM 46.0 °F 39.6 °F 41.0 °F 83% 29.83 in 10.0 mi NNW 15.0 mph - N/A   Overcast
10:53 AM 45.0 °F 38.5 °F 42.1 °F 90% 29.86 in 6.0 mi NNW 13.8 mph - 0.01 in Rain Light Rain
11:02 AM 45.0 °F 38.5 °F 42.1 °F 90% 29.84 in 2.5 mi North 13.8 mph - 0.01 in Rain Light Rain
11:07 AM 45.0 °F 38.9 °F 42.1 °F 90% 29.84 in 3.0 mi NNW 12.7 mph - 0.01 in Rain Light Rain
11:39 AM 45.0 °F 38.2 °F 42.1 °F 90% 29.85 in 7.0 mi NNW 15.0 mph 20.7 mph 0.01 in Rain Light Rain
11:53 AM 46.0 °F 40.6 °F 43.0 °F 89% 29.88 in 3.0 mi NNW 11.5 mph - 0.02 in Rain Light Rain
12:25 PM 46.9 °F - 43.0 °F 86% 29.87 in 10.0 mi North 15.0 mph - 0.01 in   Overcast
12:53 PM 46.0 °F 39.9 °F 43.0 °F 89% 29.90 in 4.0 mi North 13.8 mph - 0.01 in Rain Light Rain
1:15 PM 46.0 °F 39.9 °F 43.0 °F 89% 29.88 in 4.0 mi North 13.8 mph - 0.00 in Rain Light Rain
1:29 PM 48.0 °F - 43.0 °F 83% 29.89 in 10.0 mi NNE 13.8 mph - 0.00 in Rain Light Rain
1:39 PM 46.0 °F 39.6 °F 42.1 °F 86% 29.89 in 6.0 mi North 15.0 mph - 0.00 in Rain Light Rain
1:46 PM 46.9 °F - 43.0 °F 86% 29.89 in 9.0 mi North 16.1 mph - 0.01 in Rain Light Rain
1:53 PM 48.0 °F - 43.0 °F 83% 29.91 in 10.0 mi NNE 15.0 mph - 0.01 in   Overcast
2:00 PM 46.9 °F - 42.1 °F 83% 29.90 in 9.0 mi North 13.8 mph - N/A   Overcast
2:43 PM 46.9 °F - 41.0 °F 80% 29.92 in 9.0 mi North 13.8 mph - 0.00 in   Overcast
2:53 PM 46.9 °F - 42.1 °F 83% 29.94 in 9.0 mi North 13.8 mph - 0.00 in Rain Light Rain
3:00 PM 46.9 °F - 42.1 °F 83% 29.92 in 10.0 mi North 16.1 mph - 0.00 in   Overcast
3:53 PM 48.0 °F - 41.0 °F 77% 29.96 in 10.0 mi NNE 16.1 mph - 0.00 in   Overcast
4:53 PM 46.9 °F - 39.0 °F 74% 29.98 in 10.0 mi NNE 13.8 mph - N/A   Overcast
5:53 PM 46.9 °F - 39.0 °F 74% 29.99 in 10.0 mi NE 10.4 mph - N/A   Overcast
6:53 PM 46.0 °F 41.0 °F 37.9 °F 73% 30.03 in 10.0 mi NNE 10.4 mph - 0.00 in Rain Light Rain
7:49 PM 46.4 °F 41.5 °F 37.4 °F 71% 30.02 in 10.0 mi NE 10.4 mph - 0.00 in   Overcast
7:53 PM 46.0 °F 41.9 °F 37.9 °F 73% 30.05 in 10.0 mi NE 8.1 mph - 0.00 in   Overcast
8:23 PM 45.0 °F 40.6 °F 39.0 °F 80% 30.04 in 10.0 mi NNE 8.1 mph - 0.00 in   Overcast
8:36 PM 45.0 °F 39.7 °F 37.9 °F 76% 30.05 in 10.0 mi NE 10.4 mph - 0.00 in   Overcast
8:53 PM 45.0 °F 39.7 °F 37.9 °F 76% 30.07 in 10.0 mi ENE 10.4 mph - 0.00 in   Overcast
9:53 PM 45.0 °F 43.5 °F 37.9 °F 76% 30.11 in 10.0 mi NE 3.5 mph - N/A   Overcast
10:53 PM 45.0 °F 43.5 °F 39.9 °F 82% 30.15 in 10.0 mi ENE 3.5 mph - 0.00 in Rain Light Rain
11:19 PM 44.1 °F 40.8 °F 41.0 °F 89% 30.13 in 6.0 mi ENE 5.8 mph - 0.00 in Rain Light Rain
11:53 PM 43.0 °F 40.3 °F 39.0 °F 86% 30.15 in 10.0 mi NE 4.6 mph - 0.01 in   Overcast